Home   Weather   Gänserndorf   Past weeks

Flag for Austria Past Weather in Gänserndorf, Lower Austria, Austria — Yesterday and Last 2 Weeks

Now
50 °F

Passing clouds.


Feels Like: N/A
Forecast: 55 / 76 °F
Wind: N/A

Location: Wien / Schwechat-Flughafen

Current Time: Sep 28, 2016 at 3:51:57 AM

Latest Report: Sep 28, 2016 at 3:00 AM


Visibility: 2 mi

Pressure: 30.38 "Hg

Humidity: 93%

Dew Point: 48 °F

Location of GänserndorfLocation

Past Weather in Gänserndorf — Graph

°F

Gänserndorf Temperature Yesterday

Maximum temperature yesterday: 71 °F (at 4:00 PM)
Minimum temperature yesterday: 47 °F (at 7:00 AM)
Average temperature yesterday: 58 °F

High & Low Weather Summary for the Past Weeks

 TemperatureHumidityPressure
High83 °F (Sep 13, 3:00 PM)97% (Sep 25, 7:00 AM)30.38 "Hg (Sep 25, 7:00 AM)
Low42 °F (Sep 23, 7:00 AM)36% (Sep 22, 5:00 PM)29.76 "Hg (Sep 17, 6:00 AM)
Average62 °F70%30.06 "Hg
* Reported Sep 13 2:00 AM — Sep 28 2:00 AM, Gänserndorf, Weather by CustomWeather, © 2016

Note: Actual official high and low records may vary slightly from our data, if they occured in-between our weather recording intervals... More about our weather records

Advertising

Gänserndorf Weather History for the Previous 24 Hours

Scroll right to see more
 ConditionsComfort  
Time TempWeatherWind HumidityBarometerVisibility
2:00 AM
Wed, Sep 28
50 °FPassing clouds.N/A91%30.38 "Hg6 mi
1:00 AM49 °FPassing clouds.N/A92%30.38 "Hg7 mi
12:00 AM50 °FPassing clouds.3 mph89%30.38 "Hg7 mi
11:00 PM
Tue, Sep 27
52 °FClear.3 mph85%30.37 "Hg11 mi
10:00 PM60 °FClear.N/A68%30.35 "Hg17 mi
9:00 PM59 °FClear.N/A63%30.35 "Hg14 mi
8:00 PM62 °FPassing clouds.N/A59%30.33 "Hg22 mi
7:00 PM64 °FPassing clouds.N/A53%30.31 "Hg5 mi
6:00 PM68 °FPassing clouds.N/A49%30.29 "Hg19 mi
5:00 PM69 °FPassing clouds.N/A43%30.28 "Hg19 mi
4:00 PM71 °FPassing clouds.N/A42%30.28 "Hg19 mi
3:00 PM70 °FPassing clouds.N/A43%30.28 "Hg16 mi
2:00 PM69 °FPassing clouds.N/A46%30.29 "Hg12 mi
1:00 PM66 °FPassing clouds.N/A54%30.30 "Hg14 mi
12:00 PM64 °FPassing clouds.N/A56%30.30 "Hg16 mi
11:00 AM61 °FPassing clouds.N/A63%30.29 "Hg11 mi
10:00 AM57 °FPassing clouds.N/A73%30.29 "Hg10 mi
9:00 AM53 °FPassing clouds.N/A82%30.28 "Hg7 mi
8:00 AM50 °FPassing clouds.N/A89%30.27 "Hg6 mi
7:00 AM47 °FPassing clouds.N/A90%30.26 "Hg1 mi
6:00 AM49 °FPassing clouds.N/A90%30.24 "Hg4 mi
5:00 AM49 °FPassing clouds.N/A90%30.23 "Hg6 mi
4:00 AM48 °FPassing clouds.N/A92%30.23 "Hg7 mi
3:00 AM52 °FPassing clouds.N/A85%30.23 "Hg9 mi
Weather by CustomWeather, © 2016

See weather overviewHow to use our weather pages